Location: ??????
(55.2000°N, 38.3000°E)
Time: 07:52:15
(UTC+00:00)

Cosmos 1447 Rocket - Pass Details

Date: 15 November 2025
Orbit: 953 x 995 km, 82.9° (Epoch: 14 December)

Event Time Altitude Azimuth Distance (km) Brightness Sun altitude
Rises 02:47:41 0° 194° (SSW) 3,667 7.4 -18.5°
Reaches altitude 10° 02:50:11 10° 196° (SSW) 2,729 6.7 -18.1°
Maximum altitude 02:56:27 76° 283° (WNW) 1,021 4.4 -17.2°
Drops below altitude 10° 03:02:50 10° 10° (N) 2,770 6.9 -16.3°
Sets 03:05:23 0° 12° (NNE) 3,726 7.6 -16.0°
